Location: *
(43.9905°S, 176.4941°W)
Time: 08:56:11
(UTC+00:00)

USA 234 - Pass Details

Date: 08 December 2019
Orbit: 1099 x 1108 km, 123.0° (Epoch: 16 January)

Event Time Altitude Azimuth Distance (km) Brightness Sun altitude
Exits shadow 10:29:30 25° 61° (ENE) 2,086 4.3 -21.5°
Maximum altitude 10:33:39 78° 143° (SE) 1,145 3.3 -21.7°
Drops below altitude 10° 10:40:17 10° 228° (SW) 2,997 6.3 -22.0°
Sets 10:42:47 0° 229° (SW) 3,958 7.0 -22.1°
